Time,TemperatureF,DewpointF,PressureIn,WindDirection,WindDirectionDegrees,WindSpeedMPH,WindSpeedGustMPH,Humidity,HourlyPrecipIn,Conditions,Clouds,dailyrainin,SoftwareType,DateUTC
2013-08-29 00:00:00,68.2,61.3,29.98,SSE,166,3.2,4.7,79,0.00,,,0.00,VWS V14.00,2013-08-29 04:00:00,
2013-08-29 00:02:00,68.9,62.2,29.97,SE,131,0.0,9.4,79,0.00,,,0.00,VWS V14.00,2013-08-29 04:02:00,
2013-08-29 00:03:00,68.8,62.1,29.97,ESE,115,3.2,9.4,79,0.00,,,0.00,VWS V14.00,2013-08-29 04:03:00,
2013-08-29 00:05:00,68.8,62.1,29.97,SSE,148,0.0,5.3,79,0.00,,,0.00,VWS V14.00,2013-08-29 04:05:00,
2013-08-29 00:06:00,68.0,61.2,29.99,SSE,166,0.0,4.7,79,0.00,,,0.00,VWS V14.00,2013-08-29 04:06:00,
2013-08-29 00:09:00,67.9,61.1,29.98,SSE,166,0.0,4.7,79,0.00,,,0.00,VWS V14.00,2013-08-29 04:09:00,
2013-08-29 00:11:00,68.6,62.0,29.97,ESE,105,0.0,5.5,79,0.00,,,0.00,VWS V14.00,2013-08-29 04:11:00,
2013-08-29 00:12:00,67.9,61.1,29.98,SSE,166,0.0,4.7,79,0.00,,,0.00,VWS V14.00,2013-08-29 04:12:00,
2013-08-29 00:13:00,68.7,62.1,29.97,SSE,159,0.0,7.7,80,0.00,,,0.00,VWS V14.00,2013-08-29 04:13:00,
2013-08-29 00:15:00,67.9,61.2,29.98,SSE,166,0.0,4.7,79,0.00,,,0.00,VWS V14.00,2013-08-29 04:15:00,
2013-08-29 00:18:00,67.8,61.1,29.98,SSE,166,0.0,4.7,79,0.00,,,0.00,VWS V14.00,2013-08-29 04:18:00,
2013-08-29 00:20:00,68.6,61.6,29.98,South,183,7.8,10.2,78,0.00,,,0.00,VWS V14.00,2013-08-29 04:20:00,
2013-08-29 00:21:00,67.9,61.3,29.98,SSE,166,0.0,4.7,79,0.00,,,0.00,VWS V14.00,2013-08-29 04:21:00,
2013-08-29 00:24:00,67.7,61.3,29.98,SSE,166,0.0,4.7,80,0.00,,,0.00,VWS V14.00,2013-08-29 04:24:00,
2013-08-29 00:26:00,68.5,61.4,29.98,ESE,112,0.0,5.8,78,0.00,,,0.00,VWS V14.00,2013-08-29 04:26:00,
2013-08-29 00:27:00,67.9,61.7,29.98,SSE,166,0.0,4.7,80,0.00,,,0.00,VWS V14.00,2013-08-29 04:27:00,
2013-08-29 00:30:00,67.7,61.6,29.98,SSE,166,0.0,4.7,81,0.00,,,0.00,VWS V14.00,2013-08-29 04:30:00,
2013-08-29 00:32:00,68.4,61.2,29.98,NW,304,0.0,6.5,78,0.00,,,0.00,VWS V14.00,2013-08-29 04:32:00,
2013-08-29 00:33:00,67.7,61.7,29.98,SSE,166,0.0,4.7,81,0.00,,,0.00,VWS V14.00,2013-08-29 04:33:00,
2013-08-29 00:36:00,67.4,61.5,29.98,SSE,166,0.0,4.7,81,0.00,,,0.00,VWS V14.00,2013-08-29 04:36:00,
2013-08-29 00:38:00,68.3,61.0,29.98,SSE,158,0.0,6.0,78,0.00,,,0.00,VWS V14.00,2013-08-29 04:38:00,
2013-08-29 00:39:00,67.5,61.8,29.98,SSE,166,0.0,4.7,82,0.00,,,0.00,VWS V14.00,2013-08-29 04:39:00,
2013-08-29 00:42:00,67.4,61.8,29.98,SSE,166,0.0,4.7,82,0.00,,,0.00,VWS V14.00,2013-08-29 04:42:00,
2013-08-29 00:44:00,68.3,61.1,29.99,NNW,332,0.0,4.7,78,0.00,,,0.00,VWS V14.00,2013-08-29 04:44:00,
2013-08-29 00:45:00,67.3,61.8,29.98,SSE,166,0.0,4.7,82,0.00,,,0.00,VWS V14.00,2013-08-29 04:45:00,
2013-08-29 00:48:00,67.4,61.9,29.98,SSE,166,0.0,4.7,83,0.00,,,0.00,VWS V14.00,2013-08-29 04:48:00,
2013-08-29 00:50:00,68.2,61.3,29.99,NNW,332,0.0,4.7,79,0.00,,,0.00,VWS V14.00,2013-08-29 04:50:00,
2013-08-29 00:51:00,67.1,61.6,29.98,SSE,166,0.0,4.7,83,0.00,,,0.00,VWS V14.00,2013-08-29 04:51:00,
2013-08-29 00:54:00,67.1,61.6,29.98,SSE,166,0.0,4.7,82,0.00,,,0.00,VWS V14.00,2013-08-29 04:54:00,
2013-08-29 00:57:00,66.9,61.4,29.98,SSE,166,0.0,4.7,83,0.00,,,0.00,VWS V14.00,2013-08-29 04:57:00,
2013-08-29 01:00:00,66.9,61.5,29.98,SSE,166,0.0,4.7,83,0.00,,,0.00,VWS V14.00,2013-08-29 05:00:00,
2013-08-29 01:03:00,66.8,61.4,29.98,SSE,166,0.0,4.7,83,0.00,,,0.00,VWS V14.00,2013-08-29 05:03:00,
2013-08-29 01:06:00,66.7,61.3,29.98,SSE,166,0.0,4.7,83,0.00,,,0.00,VWS V14.00,2013-08-29 05:06:00,
2013-08-29 01:09:00,66.4,61.0,29.98,SSE,166,0.0,4.7,83,0.00,,,0.00,VWS V14.00,2013-08-29 05:09:00,
2013-08-29 01:12:00,66.4,61.0,29.98,SSE,166,0.0,4.7,83,0.00,,,0.00,VWS V14.00,2013-08-29 05:12:00,
2013-08-29 01:16:00,66.3,61.0,29.98,SSE,166,0.0,4.7,83,0.00,,,0.00,VWS V14.00,2013-08-29 05:16:00,
2013-08-29 01:19:00,66.2,60.9,29.98,SSE,166,0.0,4.7,83,0.00,,,0.00,VWS V14.00,2013-08-29 05:19:00,
2013-08-29 01:22:00,66.2,60.9,29.98,SSE,166,0.0,4.7,83,0.00,,,0.00,VWS V14.00,2013-08-29 05:22:00,
2013-08-29 01:25:00,66.1,60.8,29.98,SSE,166,0.0,4.7,83,0.00,,,0.00,VWS V14.00,2013-08-29 05:25:00,
2013-08-29 01:28:00,66.1,60.8,29.99,SSE,166,0.0,4.7,83,0.00,,,0.00,VWS V14.00,2013-08-29 05:28:00,
2013-08-29 01:31:00,66.0,60.8,29.99,SSE,166,0.0,4.7,83,0.00,,,0.00,VWS V14.00,2013-08-29 05:31:00,
2013-08-29 01:34:00,66.0,60.8,29.98,SSE,166,0.0,4.7,83,0.00,,,0.00,VWS V14.00,2013-08-29 05:34:00,
2013-08-29 01:37:00,65.8,60.7,29.98,SSE,166,0.0,4.7,84,0.00,,,0.00,VWS V14.00,2013-08-29 05:37:00,
2013-08-29 01:40:00,65.8,60.8,29.98,SSE,166,0.0,4.7,84,0.00,,,0.00,VWS V14.00,2013-08-29 05:40:00,
2013-08-29 01:43:00,65.8,60.9,29.98,SSE,166,0.0,4.7,84,0.00,,,0.00,VWS V14.00,2013-08-29 05:43:00,
2013-08-29 01:46:00,65.6,60.7,29.98,SSE,166,0.0,4.7,84,0.00,,,0.00,VWS V14.00,2013-08-29 05:46:00,
2013-08-29 01:49:00,65.4,60.5,29.98,SSE,166,0.0,4.7,84,0.00,,,0.00,VWS V14.00,2013-08-29 05:49:00,
2013-08-29 01:52:00,65.5,60.7,29.98,SSE,166,0.0,4.7,84,0.00,,,0.00,VWS V14.00,2013-08-29 05:52:00,
2013-08-29 01:55:00,65.4,60.7,29.98,SSE,166,0.0,4.7,85,0.00,,,0.00,VWS V14.00,2013-08-29 05:55:00,
2013-08-29 01:58:00,65.3,60.5,29.98,SSE,149,0.0,5.2,85,0.00,,,0.00,VWS V14.00,2013-08-29 05:58:00,
2013-08-29 02:01:00,65.1,60.4,29.98,SE,138,0.0,5.2,85,0.00,,,0.00,VWS V14.00,2013-08-29 06:01:00,
2013-08-29 02:04:00,65.1,60.3,29.98,South,187,0.0,5.2,85,0.00,,,0.00,VWS V14.00,2013-08-29 06:04:00,
2013-08-29 02:07:00,65.1,60.3,29.98,South,187,0.0,5.2,85,0.00,,,0.00,VWS V14.00,2013-08-29 06:07:00,
2013-08-29 02:10:00,65.0,60.3,29.98,South,187,0.0,5.2,85,0.00,,,0.00,VWS V14.00,2013-08-29 06:10:00,
2013-08-29 02:13:00,65.0,60.5,29.98,South,187,0.0,5.2,85,0.00,,,0.00,VWS V14.00,2013-08-29 06:13:00,
2013-08-29 02:16:00,64.8,60.3,29.98,South,187,0.0,5.2,85,0.00,,,0.00,VWS V14.00,2013-08-29 06:16:00,
2013-08-29 02:19:00,64.8,60.3,29.98,South,187,0.0,5.2,85,0.00,,,0.00,VWS V14.00,2013-08-29 06:19:00,
2013-08-29 02:22:00,64.7,60.2,29.97,SSE,166,2.0,5.2,85,0.00,,,0.00,VWS V14.00,2013-08-29 06:22:00,
2013-08-29 02:25:00,64.6,60.2,29.97,SSE,165,6.7,7.3,86,0.00,,,0.00,VWS V14.00,2013-08-29 06:25:00,
2013-08-29 02:28:00,64.3,59.9,29.97,SSE,152,3.1,7.3,86,0.00,,,0.00,VWS V14.00,2013-08-29 06:28:00,
2013-08-29 02:31:00,64.3,60.0,29.97,South,184,5.1,7.3,86,0.00,,,0.00,VWS V14.00,2013-08-29 06:31:00,
2013-08-29 02:34:00,64.0,59.9,29.97,South,191,5.0,7.3,86,0.00,,,0.00,VWS V14.00,2013-08-29 06:34:00,
2013-08-29 02:37:00,64.0,60.0,29.97,SSE,155,3.2,7.3,87,0.00,,,0.00,VWS V14.00,2013-08-29 06:37:00,
2013-08-29 02:40:00,64.0,60.1,29.97,SSE,149,0.0,7.3,87,0.00,,,0.00,VWS V14.00,2013-08-29 06:40:00,
2013-08-29 02:43:00,63.8,60.0,29.97,SSE,152,0.0,7.3,87,0.00,,,0.00,VWS V14.00,2013-08-29 06:43:00,
2013-08-29 02:46:00,63.8,60.1,29.97,SSE,152,0.0,7.3,88,0.00,,,0.00,VWS V14.00,2013-08-29 06:46:00,
2013-08-29 02:49:00,63.8,60.1,29.97,SSE,152,0.0,7.3,88,0.00,,,0.00,VWS V14.00,2013-08-29 06:49:00,
2013-08-29 02:58:00,63.6,59.8,29.98,SSE,152,0.0,7.3,87,0.00,,,0.00,VWS V14.00,2013-08-29 06:58:00,
2013-08-29 03:01:00,63.6,59.9,29.98,SE,128,2.5,7.3,88,0.00,,,0.00,VWS V14.00,2013-08-29 07:01:00,
2013-08-29 03:13:00,63.4,59.7,29.98,SSE,159,3.2,7.3,88,0.00,,,0.00,VWS V14.00,2013-08-29 07:13:00,
2013-08-29 03:19:00,63.1,59.5,29.97,SE,139,0.0,7.3,88,0.00,,,0.00,VWS V14.00,2013-08-29 07:19:00,
2013-08-29 03:25:00,63.1,59.6,29.97,SE,145,4.3,7.7,88,0.00,,,0.00,VWS V14.00,2013-08-29 07:25:00,
2013-08-29 03:34:00,62.9,59.5,29.97,SE,145,5.3,8.1,89,0.00,,,0.00,VWS V14.00,2013-08-29 07:34:00,
2013-08-29 03:43:00,62.5,59.2,29.98,SE,135,3.5,8.1,89,0.00,,,0.00,VWS V14.00,2013-08-29 07:43:00,
2013-08-29 03:45:00,63.7,59.9,29.98,SSE,152,0.0,7.3,88,0.00,,,0.00,VWS V14.00,2013-08-29 07:45:00,
2013-08-29 03:57:00,63.5,59.8,29.98,SE,128,0.0,7.3,88,0.00,,,0.00,VWS V14.00,2013-08-29 07:57:00,
2013-08-29 03:58:00,62.2,59.1,29.98,SE,142,3.5,8.1,90,0.00,,,0.00,VWS V14.00,2013-08-29 07:58:00,
2013-08-29 04:03:00,63.4,59.7,29.98,SE,128,0.0,7.3,88,0.00,,,0.00,VWS V14.00,2013-08-29 08:03:00,
2013-08-29 04:07:00,62.2,59.3,29.98,SSE,163,6.6,8.6,90,0.00,,,0.00,VWS V14.00,2013-08-29 08:07:00,
2013-08-29 04:09:00,63.4,59.8,29.98,South,170,6.2,7.3,88,0.00,,,0.00,VWS V14.00,2013-08-29 08:09:00,
2013-08-29 04:10:00,62.0,59.1,29.98,South,184,0.0,8.6,90,0.00,,,0.00,VWS V14.00,2013-08-29 08:10:00,
2013-08-29 04:15:00,63.2,59.7,29.97,SE,146,4.3,7.3,88,0.00,,,0.00,VWS V14.00,2013-08-29 08:15:00,
2013-08-29 04:21:00,63.0,59.5,29.97,SSE,166,4.2,7.7,88,0.00,,,0.00,VWS V14.00,2013-08-29 08:21:00,
2013-08-29 04:28:00,62.1,59.3,29.98,SE,142,0.0,8.6,90,0.00,,,0.00,VWS V14.00,2013-08-29 08:28:00,
2013-08-29 04:30:00,62.8,59.5,29.97,SSE,153,4.8,8.1,89,0.00,,,0.00,VWS V14.00,2013-08-29 08:30:00,
2013-08-29 04:39:00,62.6,59.3,29.98,SSE,158,3.5,8.1,89,0.00,,,0.00,VWS V14.00,2013-08-29 08:39:00,
2013-08-29 04:45:00,62.4,59.2,29.98,SSE,158,4.5,8.1,89,0.00,,,0.00,VWS V14.00,2013-08-29 08:45:00,
2013-08-29 04:49:00,62.0,58.9,30.00,SE,142,0.0,8.6,90,0.00,,,0.00,VWS V14.00,2013-08-29 08:49:00,
2013-08-29 04:52:00,62.1,59.0,30.00,SE,142,0.0,8.6,90,0.00,,,0.00,VWS V14.00,2013-08-29 08:52:00,
2013-08-29 04:54:00,62.4,59.4,29.98,SSE,148,3.4,8.1,90,0.00,,,0.00,VWS V14.00,2013-08-29 08:54:00,
2013-08-29 04:55:00,62.2,59.2,30.00,SE,142,0.0,8.6,90,0.00,,,0.00,VWS V14.00,2013-08-29 08:55:00,
2013-08-29 05:06:00,61.9,59.0,29.98,SSE,162,3.5,8.6,90,0.00,,,0.00,VWS V14.00,2013-08-29 09:06:00,
2013-08-29 05:10:00,62.5,59.5,30.01,SE,142,0.0,8.6,90,0.00,,,0.00,VWS V14.00,2013-08-29 09:10:00,
2013-08-29 05:12:00,62.1,59.2,29.98,SE,138,0.0,8.6,90,0.00,,,0.00,VWS V14.00,2013-08-29 09:12:00,
2013-08-29 05:18:00,62.1,59.3,29.98,SE,138,3.2,8.6,90,0.00,,,0.00,VWS V14.00,2013-08-29 09:18:00,
2013-08-29 05:19:00,62.3,59.4,30.01,SE,142,0.0,8.6,90,0.00,,,0.00,VWS V14.00,2013-08-29 09:19:00,
2013-08-29 05:24:00,61.9,59.0,29.99,SE,142,0.0,8.6,90,0.00,,,0.00,VWS V14.00,2013-08-29 09:24:00,
2013-08-29 05:30:00,62.4,59.3,30.00,SE,142,0.0,8.6,90,0.00,,,0.00,VWS V14.00,2013-08-29 09:30:00,
2013-08-29 05:34:00,62.5,59.6,30.02,SE,125,0.0,8.6,90,0.00,,,0.00,VWS V14.00,2013-08-29 09:34:00,
2013-08-29 05:36:00,62.2,59.0,30.00,SE,142,0.0,8.6,89,0.00,,,0.00,VWS V14.00,2013-08-29 09:36:00,
2013-08-29 05:37:00,62.5,59.6,30.02,SSE,152,0.0,8.6,90,0.00,,,0.00,VWS V14.00,2013-08-29 09:37:00,
2013-08-29 05:40:00,62.6,59.7,30.02,South,174,0.0,8.6,90,0.00,,,0.00,VWS V14.00,2013-08-29 09:40:00,
2013-08-29 05:46:00,62.5,59.6,30.02,SSE,155,0.0,11.1,90,0.00,,,0.00,VWS V14.00,2013-08-29 09:46:00,
2013-08-29 05:49:00,62.8,59.9,30.03,SE,135,4.8,11.1,90,0.00,,,0.00,VWS V14.00,2013-08-29 09:49:00,
2013-08-29 05:51:00,62.1,59.1,30.01,SE,142,0.0,8.6,90,0.00,,,0.00,VWS V14.00,2013-08-29 09:51:00,
2013-08-29 05:57:00,62.3,59.3,30.01,SE,142,0.0,8.6,90,0.00,,,0.00,VWS V14.00,2013-08-29 09:57:00,
2013-08-29 06:01:00,62.9,59.8,30.03,NE,52,2.7,11.1,90,0.00,,,0.00,VWS V14.00,2013-08-29 10:01:00,
2013-08-29 06:04:00,62.8,59.7,30.03,SE,132,0.0,11.1,90,0.00,,,0.00,VWS V14.00,2013-08-29 10:04:00,
2013-08-29 06:06:00,62.3,59.4,30.01,SE,142,0.0,8.6,90,0.00,,,0.00,VWS V14.00,2013-08-29 10:06:00,
2013-08-29 06:07:00,62.8,59.7,30.03,SSE,166,5.4,11.1,90,0.00,,,0.00,VWS V14.00,2013-08-29 10:07:00,
2013-08-29 06:10:00,63.0,59.8,30.03,SSE,153,0.0,11.1,89,0.00,,,0.00,VWS V14.00,2013-08-29 10:10:00,
2013-08-29 06:13:00,62.9,59.7,30.03,SSE,160,0.0,11.1,89,0.00,,,0.00,VWS V14.00,2013-08-29 10:13:00,
2013-08-29 06:15:00,62.7,59.8,30.02,SE,142,0.0,8.6,90,0.00,,,0.00,VWS V14.00,2013-08-29 10:15:00,
2013-08-29 06:16:00,63.0,59.8,30.03,SSE,160,0.0,11.1,89,0.00,,,0.00,VWS V14.00,2013-08-29 10:16:00,
2013-08-29 06:22:00,62.6,59.6,30.02,SE,142,0.0,8.6,90,0.00,,,0.00,VWS V14.00,2013-08-29 10:22:00,
2013-08-29 06:23:00,63.1,59.9,30.04,SSE,155,0.0,11.1,89,0.00,,,0.00,VWS V14.00,2013-08-29 10:23:00,
2013-08-29 06:35:00,63.0,59.8,30.04,NNE,25,0.0,11.1,89,0.00,,,0.00,VWS V14.00,2013-08-29 10:35:00,
2013-08-29 06:37:00,62.6,59.7,30.02,South,186,0.0,8.6,90,0.00,,,0.00,VWS V14.00,2013-08-29 10:37:00,
2013-08-29 06:44:00,63.2,60.1,30.04,NNE,25,0.0,11.1,90,0.00,,,0.00,VWS V14.00,2013-08-29 10:44:00,
2013-08-29 06:46:00,62.6,59.7,30.03,SSE,166,0.0,11.1,90,0.00,,,0.00,VWS V14.00,2013-08-29 10:46:00,
2013-08-29 06:47:00,63.3,60.2,30.04,NNE,25,0.0,11.1,90,0.00,,,0.00,VWS V14.00,2013-08-29 10:47:00,
2013-08-29 06:52:00,62.7,59.7,30.03,SE,139,0.0,11.1,90,0.00,,,0.00,VWS V14.00,2013-08-29 10:52:00,
2013-08-29 07:02:00,63.4,60.4,30.05,NNE,25,0.0,11.1,90,0.00,,,0.00,VWS V14.00,2013-08-29 11:02:00,
2013-08-29 07:13:00,63.0,59.8,30.03,SSE,160,0.0,11.1,89,0.00,,,0.00,VWS V14.00,2013-08-29 11:13:00,
2013-08-29 07:19:00,62.9,59.7,30.04,SSE,155,0.0,11.1,89,0.00,,,0.00,VWS V14.00,2013-08-29 11:19:00,
2013-08-29 07:25:00,63.0,59.8,30.04,NNE,25,0.0,11.1,89,0.00,,,0.00,VWS V14.00,2013-08-29 11:25:00,
2013-08-29 07:31:00,63.3,60.2,30.04,NNE,25,0.0,11.1,90,0.00,,,0.00,VWS V14.00,2013-08-29 11:31:00,
2013-08-29 07:35:00,64.2,61.2,30.06,NNE,25,0.0,11.1,90,0.00,,,0.00,VWS V14.00,2013-08-29 11:35:00,
2013-08-29 07:43:00,63.3,60.2,30.04,NNE,25,0.0,11.1,90,0.00,,,0.00,VWS V14.00,2013-08-29 11:43:00,
2013-08-29 07:44:00,64.6,61.5,30.06,NNE,25,0.0,11.1,90,0.00,,,0.00,VWS V14.00,2013-08-29 11:44:00,
2013-08-29 07:49:00,63.4,60.3,30.05,NNE,25,0.0,11.1,90,0.00,,,0.00,VWS V14.00,2013-08-29 11:49:00,
2013-08-29 07:50:00,64.8,61.7,30.07,NNE,25,0.0,11.1,90,0.00,,,0.00,VWS V14.00,2013-08-29 11:50:00,
2013-08-29 07:58:00,63.5,60.5,30.05,NNE,25,0.0,11.1,90,0.00,,,0.00,VWS V14.00,2013-08-29 11:58:00,
2013-08-29 08:04:00,63.4,60.4,30.05,NNE,25,0.0,11.1,90,0.00,,,0.00,VWS V14.00,2013-08-29 12:04:00,
2013-08-29 08:06:00,65.6,62.2,30.07,NNE,25,0.0,11.1,89,0.00,,,0.00,VWS V14.00,2013-08-29 12:06:00,
2013-08-29 08:10:00,63.8,60.8,30.05,NNE,25,0.0,11.1,90,0.00,,,0.00,VWS V14.00,2013-08-29 12:10:00,
2013-08-29 08:16:00,63.9,61.0,30.06,NNE,25,0.0,11.1,90,0.00,,,0.00,VWS V14.00,2013-08-29 12:16:00,
2013-08-29 08:18:00,65.9,62.5,30.07,NNE,25,0.0,11.1,89,0.00,,,0.00,VWS V14.00,2013-08-29 12:18:00,
2013-08-29 08:21:00,66.2,62.8,30.07,NNE,25,0.0,11.1,89,0.00,,,0.00,VWS V14.00,2013-08-29 12:21:00,
2013-08-29 08:22:00,64.0,61.0,30.06,NNE,25,0.0,11.1,90,0.00,,,0.00,VWS V14.00,2013-08-29 12:22:00,
2013-08-29 08:31:00,64.3,61.3,30.06,NNE,25,0.0,11.1,90,0.00,,,0.00,VWS V14.00,2013-08-29 12:31:00,
2013-08-29 08:40:00,64.6,61.5,30.06,NNE,25,0.0,11.1,90,0.00,,,0.00,VWS V14.00,2013-08-29 12:40:00,
2013-08-29 08:53:00,65.2,62.0,30.07,NNE,25,0.0,11.1,89,0.00,,,0.00,VWS V14.00,2013-08-29 12:53:00,
2013-08-29 08:54:00,67.5,62.9,30.08,SSE,149,3.2,11.1,85,0.00,,,0.00,VWS V14.00,2013-08-29 12:54:00,
2013-08-29 09:02:00,65.6,62.2,30.07,NNE,25,0.0,11.1,89,0.00,,,0.00,VWS V14.00,2013-08-29 13:02:00,
2013-08-29 09:03:00,68.2,63.2,30.08,SE,125,0.0,11.1,84,0.00,,,0.00,VWS V14.00,2013-08-29 13:03:00,
2013-08-29 09:08:00,65.9,62.6,30.07,NNE,25,0.0,11.1,89,0.00,,,0.00,VWS V14.00,2013-08-29 13:08:00,
2013-08-29 09:12:00,68.9,63.1,30.08,East,101,0.0,11.1,82,0.00,,,0.00,VWS V14.00,2013-08-29 13:12:00,
2013-08-29 09:17:00,66.2,62.7,30.08,NNE,25,0.0,11.1,89,0.00,,,0.00,VWS V14.00,2013-08-29 13:17:00,
2013-08-29 09:23:00,66.4,62.7,30.08,SSE,152,0.0,11.1,88,0.00,,,0.00,VWS V14.00,2013-08-29 13:23:00,
2013-08-29 09:29:00,66.7,63.0,30.08,SSE,152,0.0,11.1,88,0.00,,,0.00,VWS V14.00,2013-08-29 13:29:00,
2013-08-29 09:33:00,70.4,62.8,30.07,SE,128,3.2,11.1,77,0.00,,,0.00,VWS V14.00,2013-08-29 13:33:00,
2013-08-29 09:35:00,66.8,62.7,30.08,SE,124,0.0,11.1,87,0.00,,,0.00,VWS V14.00,2013-08-29 13:35:00,
2013-08-29 09:39:00,71.3,63.1,30.07,SW,222,3.5,11.1,75,0.00,,,0.00,VWS V14.00,2013-08-29 13:39:00,
2013-08-29 09:41:00,67.0,62.5,30.08,SSE,167,0.0,11.1,85,0.00,,,0.00,VWS V14.00,2013-08-29 13:41:00,
2013-08-29 09:50:00,67.7,62.9,30.08,ESE,115,0.0,11.1,85,0.00,,,0.00,VWS V14.00,2013-08-29 13:50:00,
2013-08-29 09:57:00,73.9,63.4,30.07,SE,141,3.0,11.1,70,0.00,,,0.00,VWS V14.00,2013-08-29 13:57:00,
2013-08-29 09:59:00,68.5,63.4,30.08,SE,125,0.0,11.1,84,0.00,,,0.00,VWS V14.00,2013-08-29 13:59:00,
2013-08-29 10:00:00,74.4,63.2,30.07,SSE,149,3.0,11.1,68,0.00,,,0.00,VWS V14.00,2013-08-29 14:00:00,
2013-08-29 10:08:00,69.4,63.2,30.08,NE,35,2.9,11.1,80,0.00,,,0.00,VWS V14.00,2013-08-29 14:08:00,
2013-08-29 10:14:00,69.5,62.5,30.08,NNE,28,0.0,11.1,78,0.00,,,0.00,VWS V14.00,2013-08-29 14:14:00,
2013-08-29 10:20:00,69.8,62.5,30.08,East,86,0.0,11.1,78,0.00,,,0.00,VWS V14.00,2013-08-29 14:20:00,
2013-08-29 10:21:00,74.8,62.7,30.07,SE,125,0.0,11.1,66,0.00,,,0.00,VWS V14.00,2013-08-29 14:21:00,
2013-08-29 10:29:00,71.0,63.0,30.07,SSW,194,0.0,11.1,76,0.00,,,0.00,VWS V14.00,2013-08-29 14:29:00,
2013-08-29 10:33:00,74.4,62.7,30.07,SSE,148,0.0,11.1,67,0.00,,,0.00,VWS V14.00,2013-08-29 14:33:00,
2013-08-29 10:35:00,71.8,63.1,30.07,SSE,150,0.0,11.1,74,0.00,,,0.00,VWS V14.00,2013-08-29 14:35:00,
2013-08-29 10:41:00,72.6,62.8,30.07,SE,131,0.0,11.1,71,0.00,,,0.00,VWS V14.00,2013-08-29 14:41:00,
2013-08-29 10:47:00,73.3,63.3,30.07,SE,131,0.0,11.1,71,0.00,,,0.00,VWS V14.00,2013-08-29 14:47:00,
2013-08-29 10:56:00,74.8,63.5,30.07,South,176,0.0,11.1,68,0.00,,,0.00,VWS V14.00,2013-08-29 14:56:00,
2013-08-29 10:57:00,74.3,62.3,30.07,SSE,148,0.0,11.1,66,0.00,,,0.00,VWS V14.00,2013-08-29 14:57:00,
2013-08-29 11:02:00,74.8,62.8,30.07,SSE,165,0.0,11.1,66,0.00,,,0.00,VWS V14.00,2013-08-29 15:02:00,
2013-08-29 11:08:00,74.8,62.5,30.07,SE,125,0.0,11.1,66,0.00,,,0.00,VWS V14.00,2013-08-29 15:08:00,
2013-08-29 11:12:00,73.8,62.1,30.07,SSE,148,0.0,11.1,67,0.00,,,0.00,VWS V14.00,2013-08-29 15:12:00,
2013-08-29 11:17:00,74.8,62.5,30.07,SSE,148,0.0,11.1,66,0.00,,,0.00,VWS V14.00,2013-08-29 15:17:00,
2013-08-29 11:18:00,73.7,62.5,30.07,SSE,148,0.0,11.1,68,0.00,,,0.00,VWS V14.00,2013-08-29 15:18:00,
2013-08-29 11:23:00,74.6,62.8,30.07,SSE,148,0.0,11.1,67,0.00,,,0.00,VWS V14.00,2013-08-29 15:23:00,
2013-08-29 11:24:00,73.9,62.8,30.07,SSE,148,0.0,11.1,68,0.00,,,0.00,VWS V14.00,2013-08-29 15:24:00,
2013-08-29 11:29:00,74.3,62.9,30.07,SSE,148,0.0,11.1,68,0.00,,,0.00,VWS V14.00,2013-08-29 15:29:00,
2013-08-29 11:30:00,73.8,62.6,30.07,SSE,148,0.0,11.1,68,0.00,,,0.00,VWS V14.00,2013-08-29 15:30:00,
2013-08-29 11:35:00,74.3,62.8,30.07,SSE,148,0.0,11.1,67,0.00,,,0.00,VWS V14.00,2013-08-29 15:35:00,
2013-08-29 11:39:00,73.9,62.9,30.07,SSE,148,0.0,11.1,69,0.00,,,0.00,VWS V14.00,2013-08-29 15:39:00,
2013-08-29 11:41:00,74.3,62.3,30.07,SSE,148,0.0,11.1,66,0.00,,,0.00,VWS V14.00,2013-08-29 15:41:00,
2013-08-29 11:47:00,74.2,62.2,30.07,SSE,148,0.0,11.1,66,0.00,,,0.00,VWS V14.00,2013-08-29 15:47:00,
2013-08-29 11:48:00,73.8,62.2,30.07,SSE,148,0.0,11.1,67,0.00,,,0.00,VWS V14.00,2013-08-29 15:48:00,
2013-08-29 11:53:00,74.2,62.2,30.07,SSE,148,0.0,11.1,66,0.00,,,0.00,VWS V14.00,2013-08-29 15:53:00,
2013-08-29 11:59:00,74.1,62.3,30.07,SSE,148,0.0,11.1,67,0.00,,,0.00,VWS V14.00,2013-08-29 15:59:00,
2013-08-29 12:03:00,73.3,61.9,30.07,SSE,148,0.0,11.1,68,0.00,,,0.00,VWS V14.00,2013-08-29 16:03:00,
2013-08-29 12:08:00,73.8,62.3,30.07,SSE,148,0.0,11.1,67,0.00,,,0.00,VWS V14.00,2013-08-29 16:08:00,
2013-08-29 12:09:00,73.1,62.1,30.07,SSE,148,0.0,11.1,68,0.00,,,0.00,VWS V14.00,2013-08-29 16:09:00,
2013-08-29 12:14:00,73.7,62.7,30.07,SSE,148,0.0,11.1,69,0.00,,,0.00,VWS V14.00,2013-08-29 16:14:00,
2013-08-29 12:15:00,72.9,62.1,30.07,SSE,148,0.0,11.1,69,0.00,,,0.00,VWS V14.00,2013-08-29 16:15:00,
2013-08-29 12:20:00,73.7,62.5,30.07,SSE,148,0.0,11.1,68,0.00,,,0.00,VWS V14.00,2013-08-29 16:20:00,
2013-08-29 12:21:00,72.8,62.2,30.07,SSE,148,0.0,11.1,69,0.00,,,0.00,VWS V14.00,2013-08-29 16:21:00,
2013-08-29 12:26:00,73.7,62.7,30.07,SSE,148,0.0,11.1,69,0.00,,,0.00,VWS V14.00,2013-08-29 16:26:00,
2013-08-29 12:35:00,73.8,62.5,30.07,SSE,148,0.0,11.1,68,0.00,,,0.00,VWS V14.00,2013-08-29 16:35:00,
2013-08-29 12:44:00,73.8,62.2,30.07,SSE,148,0.0,11.1,67,0.00,,,0.00,VWS V14.00,2013-08-29 16:44:00,
2013-08-29 12:50:00,73.5,61.8,30.07,SSE,148,0.0,11.1,67,0.00,,,0.00,VWS V14.00,2013-08-29 16:50:00,
2013-08-29 12:59:00,73.2,62.1,30.07,SSE,148,0.0,11.1,68,0.00,,,0.00,VWS V14.00,2013-08-29 16:59:00,
2013-08-29 13:00:00,72.9,62.5,30.06,SSE,148,0.0,11.1,70,0.00,,,0.00,VWS V14.00,2013-08-29 17:00:00,
2013-08-29 13:05:00,72.9,61.9,30.07,SSE,148,0.0,11.1,68,0.00,,,0.00,VWS V14.00,2013-08-29 17:05:00,
2013-08-29 13:11:00,72.9,62.3,30.07,SSE,148,0.0,11.1,70,0.00,,,0.00,VWS V14.00,2013-08-29 17:11:00,
2013-08-29 13:17:00,72.8,62.1,30.07,SSE,148,0.0,11.1,69,0.00,,,0.00,VWS V14.00,2013-08-29 17:17:00,
2013-08-29 13:24:00,72.8,62.3,30.07,SSE,148,0.0,11.1,70,0.00,,,0.00,VWS V14.00,2013-08-29 17:24:00,
2013-08-29 13:30:00,72.7,62.1,30.07,SSE,148,0.0,11.1,69,0.00,,,0.00,VWS V14.00,2013-08-29 17:30:00,
2013-08-29 13:31:00,73.6,62.0,30.06,SSE,148,0.0,11.1,67,0.00,,,0.00,VWS V14.00,2013-08-29 17:31:00,
2013-08-29 13:36:00,72.6,62.1,30.07,SSE,148,0.0,11.1,70,0.00,,,0.00,VWS V14.00,2013-08-29 17:36:00,
2013-08-29 13:42:00,72.6,62.1,30.07,SSE,148,0.0,11.1,70,0.00,,,0.00,VWS V14.00,2013-08-29 17:42:00,
2013-08-29 13:48:00,72.8,62.5,30.07,SSE,148,0.0,11.1,70,0.00,,,0.00,VWS V14.00,2013-08-29 17:48:00,
2013-08-29 13:57:00,72.8,62.2,30.06,SSE,148,0.0,11.1,69,0.00,,,0.00,VWS V14.00,2013-08-29 17:57:00,
2013-08-29 14:03:00,72.9,62.0,30.06,SSE,148,0.0,11.1,69,0.00,,,0.00,VWS V14.00,2013-08-29 18:03:00,
2013-08-29 14:09:00,72.9,62.0,30.06,SSE,148,0.0,11.1,69,0.00,,,0.00,VWS V14.00,2013-08-29 18:09:00,
2013-08-29 14:15:00,73.4,62.2,30.06,SSE,148,0.0,11.1,68,0.00,,,0.00,VWS V14.00,2013-08-29 18:15:00,
2013-08-29 14:16:00,77.8,60.7,30.04,NW,323,0.0,11.1,56,0.00,,,0.00,VWS V14.00,2013-08-29 18:16:00,
2013-08-29 14:19:00,77.9,60.5,30.04,NW,323,0.0,11.1,55,0.00,,,0.00,VWS V14.00,2013-08-29 18:19:00,
2013-08-29 14:21:00,73.4,61.9,30.06,SSE,148,0.0,11.1,67,0.00,,,0.00,VWS V14.00,2013-08-29 18:21:00,
2013-08-29 14:25:00,77.9,60.5,30.04,NW,323,0.0,11.1,55,0.00,,,0.00,VWS V14.00,2013-08-29 18:25:00,
2013-08-29 14:27:00,73.8,62.2,30.06,SSE,148,0.0,11.1,67,0.00,,,0.00,VWS V14.00,2013-08-29 18:27:00,
2013-08-29 14:33:00,74.2,62.3,30.05,SSE,148,0.0,11.1,66,0.00,,,0.00,VWS V14.00,2013-08-29 18:33:00,
2013-08-29 14:39:00,74.7,61.9,30.05,SSE,148,0.0,11.1,64,0.00,,,0.00,VWS V14.00,2013-08-29 18:39:00,
2013-08-29 14:45:00,75.6,62.3,30.05,SSE,148,0.0,11.1,63,0.00,,,0.00,VWS V14.00,2013-08-29 18:45:00,
2013-08-29 14:51:00,76.1,62.2,30.05,North,359,3.0,11.1,62,0.00,,,0.00,VWS V14.00,2013-08-29 18:51:00,
2013-08-29 14:57:00,76.9,62.2,30.04,North,352,0.0,11.1,60,0.00,,,0.00,VWS V14.00,2013-08-29 18:57:00,
2013-08-29 15:03:00,77.3,61.9,30.04,North,359,0.0,11.1,59,0.00,,,0.00,VWS V14.00,2013-08-29 19:03:00,
2013-08-29 15:15:00,78.0,60.8,30.04,NW,323,0.0,11.1,56,0.00,,,0.00,VWS V14.00,2013-08-29 19:15:00,
2013-08-29 15:21:00,78.3,60.5,30.04,NW,323,0.0,11.1,54,0.00,,,0.00,VWS V14.00,2013-08-29 19:21:00,
2013-08-29 15:27:00,78.7,61.3,30.04,NW,323,0.0,11.1,55,0.00,,,0.00,VWS V14.00,2013-08-29 19:27:00,
2013-08-29 15:43:00,79.5,60.3,30.04,NW,316,0.0,11.1,52,0.00,,,0.00,VWS V14.00,2013-08-29 19:43:00,
2013-08-29 15:49:00,79.9,60.3,30.04,NW,316,0.0,11.1,51,0.00,,,0.00,VWS V14.00,2013-08-29 19:49:00,
2013-08-29 15:55:00,80.0,59.9,30.03,NW,316,0.0,11.1,50,0.00,,,0.00,VWS V14.00,2013-08-29 19:55:00,
2013-08-29 16:01:00,80.2,60.9,30.03,NW,316,0.0,11.1,52,0.00,,,0.00,VWS V14.00,2013-08-29 20:01:00,
2013-08-29 16:07:00,80.4,61.4,30.03,NW,316,0.0,11.1,52,0.00,,,0.00,VWS V14.00,2013-08-29 20:07:00,
2013-08-29 16:13:00,80.5,61.0,30.04,NW,316,0.0,11.1,52,0.00,,,0.00,VWS V14.00,2013-08-29 20:13:00,
2013-08-29 16:19:00,80.6,60.5,30.03,SSW,195,0.0,11.1,50,0.00,,,0.00,VWS V14.00,2013-08-29 20:19:00,
2013-08-29 16:26:00,80.9,61.0,30.03,SE,142,0.0,11.1,51,0.00,,,0.00,VWS V14.00,2013-08-29 20:26:00,
2013-08-29 16:32:00,81.4,60.8,30.03,NE,56,0.0,11.1,50,0.00,,,0.00,VWS V14.00,2013-08-29 20:32:00,
2013-08-29 16:38:00,82.1,60.0,30.03,NE,56,0.0,11.1,47,0.00,,,0.00,VWS V14.00,2013-08-29 20:38:00,
2013-08-29 16:44:00,84.2,59.7,30.03,NE,56,0.0,11.1,44,0.00,,,0.00,VWS V14.00,2013-08-29 20:44:00,
2013-08-29 16:50:00,87.3,59.6,30.03,NE,56,0.0,11.1,39,0.00,,,0.00,VWS V14.00,2013-08-29 20:50:00,
2013-08-29 16:56:00,90.6,58.6,30.03,NE,56,0.0,11.1,34,0.00,,,0.00,VWS V14.00,2013-08-29 20:56:00,
2013-08-29 17:02:00,93.3,57.5,30.03,NE,56,0.0,11.1,30,0.00,,,0.00,VWS V14.00,2013-08-29 21:02:00,
2013-08-29 17:08:00,94.9,55.3,30.03,NE,41,0.0,11.1,27,0.00,,,0.00,VWS V14.00,2013-08-29 21:08:00,
2013-08-29 17:14:00,94.0,53.9,30.03,NE,44,0.0,11.1,26,0.00,,,0.00,VWS V14.00,2013-08-29 21:14:00,
2013-08-29 17:20:00,91.3,54.3,30.03,NE,44,0.0,11.1,29,0.00,,,0.00,VWS V14.00,2013-08-29 21:20:00,
2013-08-29 17:26:00,88.6,55.7,30.02,NE,44,0.0,11.1,33,0.00,,,0.00,VWS V14.00,2013-08-29 21:26:00,
2013-08-29 17:32:00,86.2,56.5,30.02,NE,44,0.0,11.1,36,0.00,,,0.00,VWS V14.00,2013-08-29 21:32:00,
2013-08-29 17:38:00,84.4,58.0,30.02,NE,44,0.0,11.1,41,0.00,,,0.00,VWS V14.00,2013-08-29 21:38:00,
2013-08-29 17:44:00,82.7,58.4,30.02,NE,44,0.0,11.1,44,0.00,,,0.00,VWS V14.00,2013-08-29 21:44:00,
2013-08-29 17:50:00,81.5,58.1,30.02,NE,44,0.0,11.1,45,0.00,,,0.00,VWS V14.00,2013-08-29 21:50:00,
2013-08-29 17:56:00,80.5,58.4,30.02,NE,44,0.0,11.1,47,0.00,,,0.00,VWS V14.00,2013-08-29 21:56:00,
2013-08-29 18:02:00,79.8,58.3,30.02,NE,44,0.0,11.1,48,0.00,,,0.00,VWS V14.00,2013-08-29 22:02:00,
2013-08-29 18:08:00,79.1,58.9,30.02,NE,44,0.0,11.1,50,0.00,,,0.00,VWS V14.00,2013-08-29 22:08:00,
2013-08-29 18:14:00,78.4,59.4,30.02,NE,44,0.0,11.1,52,0.00,,,0.00,VWS V14.00,2013-08-29 22:14:00,
2013-08-29 18:20:00,78.1,59.9,30.03,NE,44,0.0,11.1,54,0.00,,,0.00,VWS V14.00,2013-08-29 22:20:00,
2013-08-29 18:26:00,77.3,59.4,30.03,NE,44,0.0,11.1,54,0.00,,,0.00,VWS V14.00,2013-08-29 22:26:00,
2013-08-29 18:32:00,77.0,59.7,30.03,NE,44,0.0,11.1,55,0.00,,,0.00,VWS V14.00,2013-08-29 22:32:00,
2013-08-29 18:38:00,76.7,60.8,30.03,NE,44,0.0,11.1,58,0.00,,,0.00,VWS V14.00,2013-08-29 22:38:00,
2013-08-29 18:44:00,76.4,60.8,30.03,NE,44,0.0,11.1,59,0.00,,,0.00,VWS V14.00,2013-08-29 22:44:00,
2013-08-29 18:50:00,76.1,61.5,30.03,NE,44,0.0,11.1,60,0.00,,,0.00,VWS V14.00,2013-08-29 22:50:00,
2013-08-29 18:56:00,75.7,61.5,30.03,NE,44,0.0,11.1,61,0.00,,,0.00,VWS V14.00,2013-08-29 22:56:00,
2013-08-29 19:02:00,75.3,61.2,30.03,NE,44,0.0,11.1,62,0.00,,,0.00,VWS V14.00,2013-08-29 23:02:00,
2013-08-29 19:08:00,75.0,61.2,30.03,NE,44,0.0,11.1,62,0.00,,,0.00,VWS V14.00,2013-08-29 23:08:00,
2013-08-29 19:14:00,74.4,60.9,30.03,NE,44,0.0,11.1,63,0.00,,,0.00,VWS V14.00,2013-08-29 23:14:00,
2013-08-29 19:20:00,74.1,60.9,30.03,NE,44,0.0,11.1,63,0.00,,,0.00,VWS V14.00,2013-08-29 23:20:00,
2013-08-29 19:26:00,73.7,60.8,30.03,NE,44,0.0,11.1,64,0.00,,,0.00,VWS V14.00,2013-08-29 23:26:00,
2013-08-29 19:32:00,73.5,61.1,30.03,ESE,108,0.0,11.1,65,0.00,,,0.00,VWS V14.00,2013-08-29 23:32:00,
2013-08-29 19:38:00,72.9,61.1,30.03,ESE,108,0.0,11.1,66,0.00,,,0.00,VWS V14.00,2013-08-29 23:38:00,
2013-08-29 19:45:00,72.6,61.3,30.03,ESE,108,0.0,11.1,68,0.00,,,0.00,VWS V14.00,2013-08-29 23:45:00,
2013-08-29 19:51:00,72.2,61.4,30.04,ESE,108,0.0,11.1,69,0.00,,,0.00,VWS V14.00,2013-08-29 23:51:00,
2013-08-29 19:57:00,71.8,61.5,30.04,SSE,153,0.0,11.1,70,0.00,,,0.00,VWS V14.00,2013-08-29 23:57:00,
2013-08-29 20:03:00,71.5,61.6,30.04,SSE,153,0.0,11.1,71,0.00,,,0.00,VWS V14.00,2013-08-30 00:03:00,
2013-08-29 20:09:00,71.4,61.8,30.04,SSE,153,0.0,11.1,72,0.00,,,0.00,VWS V14.00,2013-08-30 00:09:00,
2013-08-29 20:15:00,71.3,61.9,30.04,SSE,153,0.0,11.1,72,0.00,,,0.00,VWS V14.00,2013-08-30 00:15:00,
2013-08-29 20:21:00,71.0,61.6,30.04,SSE,153,0.0,11.1,72,0.00,,,0.00,VWS V14.00,2013-08-30 00:21:00,
2013-08-29 20:27:00,70.9,61.9,30.04,SSE,153,0.0,11.1,73,0.00,,,0.00,VWS V14.00,2013-08-30 00:27:00,
2013-08-29 20:33:00,70.7,61.9,30.05,SSE,153,0.0,11.1,74,0.00,,,0.00,VWS V14.00,2013-08-30 00:33:00,
2013-08-29 20:39:00,70.6,62.0,30.05,SSE,153,0.0,11.1,74,0.00,,,0.00,VWS V14.00,2013-08-30 00:39:00,
2013-08-29 20:45:00,70.5,62.0,30.04,South,186,4.3,11.1,75,0.00,,,0.00,VWS V14.00,2013-08-30 00:45:00,
2013-08-29 20:51:00,70.3,62.1,30.04,South,173,0.0,11.1,75,0.00,,,0.00,VWS V14.00,2013-08-30 00:51:00,
2013-08-29 20:57:00,69.9,61.9,30.05,SE,143,0.0,11.1,76,0.00,,,0.00,VWS V14.00,2013-08-30 00:57:00,
2013-08-29 21:03:00,69.6,61.9,30.05,SE,143,0.0,11.1,77,0.00,,,0.00,VWS V14.00,2013-08-30 01:03:00,
2013-08-29 21:09:00,69.5,62.1,30.04,SE,143,0.0,11.1,77,0.00,,,0.00,VWS V14.00,2013-08-30 01:09:00,
2013-08-29 21:15:00,69.5,62.1,30.05,SE,143,0.0,11.1,77,0.00,,,0.00,VWS V14.00,2013-08-30 01:15:00,
2013-08-29 21:21:00,69.5,62.1,30.04,SE,143,0.0,11.1,77,0.00,,,0.00,VWS V14.00,2013-08-30 01:21:00,
2013-08-29 21:27:00,69.3,62.0,30.04,SE,143,0.0,11.1,78,0.00,,,0.00,VWS V14.00,2013-08-30 01:27:00,
2013-08-29 21:33:00,69.0,61.9,30.03,SSE,162,4.6,11.1,78,0.00,,,0.00,VWS V14.00,2013-08-30 01:33:00,
2013-08-29 21:39:00,68.6,61.6,30.03,SE,142,3.0,11.1,78,0.00,,,0.00,VWS V14.00,2013-08-30 01:39:00,
2013-08-29 21:45:00,68.4,61.7,30.03,SE,125,0.0,11.1,79,0.00,,,0.00,VWS V14.00,2013-08-30 01:45:00,
2013-08-29 21:51:00,68.2,61.8,30.03,SSE,155,3.2,11.1,80,0.00,,,0.00,VWS V14.00,2013-08-30 01:51:00,
2013-08-29 21:57:00,68.0,61.8,30.03,SSE,163,0.0,11.1,80,0.00,,,0.00,VWS V14.00,2013-08-30 01:57:00,
2013-08-29 22:03:00,68.1,61.9,30.03,SSE,163,0.0,11.1,80,0.00,,,0.00,VWS V14.00,2013-08-30 02:03:00,
2013-08-29 22:09:00,68.0,61.8,30.03,SSE,163,0.0,11.1,81,0.00,,,0.00,VWS V14.00,2013-08-30 02:09:00,
2013-08-29 22:15:00,67.8,61.8,30.03,SSE,163,0.0,11.1,81,0.00,,,0.00,VWS V14.00,2013-08-30 02:15:00,
2013-08-29 22:21:00,67.9,61.9,30.03,SSE,163,0.0,11.1,81,0.00,,,0.00,VWS V14.00,2013-08-30 02:21:00,
2013-08-29 22:27:00,67.4,61.5,30.02,SSE,167,2.1,11.1,81,0.00,,,0.00,VWS V14.00,2013-08-30 02:27:00,
2013-08-29 22:33:00,67.4,61.7,30.02,ESE,104,0.0,11.1,82,0.00,,,0.00,VWS V14.00,2013-08-30 02:33:00,
2013-08-29 22:39:00,67.3,61.6,30.02,ESE,104,0.0,11.1,82,0.00,,,0.00,VWS V14.00,2013-08-30 02:39:00,
2013-08-29 22:45:00,67.1,61.6,30.02,ESE,104,0.0,11.1,82,0.00,,,0.00,VWS V14.00,2013-08-30 02:45:00,
2013-08-29 22:51:00,67.0,61.6,30.02,ESE,104,0.0,11.1,83,0.00,,,0.00,VWS V14.00,2013-08-30 02:51:00,
2013-08-29 22:57:00,66.8,61.6,30.02,ESE,104,0.0,11.1,83,0.00,,,0.00,VWS V14.00,2013-08-30 02:57:00,
2013-08-29 23:03:00,66.7,61.6,30.02,ESE,104,0.0,11.1,84,0.00,,,0.00,VWS V14.00,2013-08-30 03:03:00,
2013-08-29 23:09:00,66.8,61.6,30.02,ESE,104,0.0,11.1,83,0.00,,,0.00,VWS V14.00,2013-08-30 03:09:00,
2013-08-29 23:15:00,66.5,61.4,30.02,ESE,104,0.0,11.1,84,0.00,,,0.00,VWS V14.00,2013-08-30 03:15:00,
2013-08-29 23:21:00,66.6,61.5,30.02,ESE,104,0.0,11.1,84,0.00,,,0.00,VWS V14.00,2013-08-30 03:21:00,
2013-08-29 23:27:00,66.5,61.5,30.02,ESE,104,0.0,11.1,84,0.00,,,0.00,VWS V14.00,2013-08-30 03:27:00,
2013-08-29 23:33:00,66.4,61.4,30.02,ESE,104,0.0,11.1,84,0.00,,,0.00,VWS V14.00,2013-08-30 03:33:00,
2013-08-29 23:39:00,66.5,61.6,30.03,ESE,104,0.0,0.0,84,0.00,,,0.00,VWS V14.00,2013-08-30 03:39:00,
2013-08-29 23:45:00,66.3,61.4,30.03,ESE,104,0.0,0.0,84,0.00,,,0.00,VWS V14.00,2013-08-30 03:45:00,
2013-08-29 23:51:00,66.3,61.5,30.02,ESE,104,0.0,0.0,84,0.00,,,0.00,VWS V14.00,2013-08-30 03:51:00,
2013-08-29 23:57:00,66.3,61.5,30.02,ESE,104,0.0,0.0,85,0.00,,,0.00,VWS V14.00,2013-08-30 03:57:00,